TIME,DELAY(SENSOR),PRES,T(CTD),SAL,OXYGEN,RAWTEMP,T(OPTODE),TCPHASE,TURBIDITY,TURBIDITY_GAIN,FLUOR,BETA,CDOM,ED411.5,ED443.8,ED489.6,PAR,COMP,TILT,TILTY(TILT),CHECK
1340632147,6467,199.1300048828125000,5.9762001037597660,34.8634986877441400,324.1720886230469000,730.8059082031250000,5.9514579772949220,34.4127883911132800,16,3,49,107,64,2147240689,2147561174,2147572310,2147359560,3124,0,-12,11493
1340632208,6504,195.9100036621093800,5.9917998313903810,34.8606986999511700,324.1073913574219000,730.4227905273438000,5.9646968841552730,34.4079017639160160,16,3,50,105,64,2147237695,2147556497,2147575409,2147359766,2460,0,-12,52595
1340632269,6504,192.7100067138672000,5.9983000755310060,34.8594017028808600,324.2663879394531000,730.2249755859375000,5.9715328216552730,34.3979606628418000,16,3,50,106,64,2147239428,2147554756,2147574893,2147359962,1889,0,-12,21437
1340632330,6503,189.6499938964843800,6.0075998306274410,34.8544998168945300,324.0654907226562500,729.7819824218750000,5.9868388175964355,34.3967895507812500,16,3,48,105,64,2147239968,2147556932,2147573106,2147362029,1114,0,-12,6908
1340632391,6467,186.7299957275390600,6.0370001792907715,34.8532981872558600,324.4107055664062500,729.0963745117188000,6.0105209350585940,34.3711509704589840,16,3,50,109,64,2147238367,2147556557,2147574683,2147355912,501,0,-12,44617
1340632453,6503,183.7799987792968800,6.0515999794006350,34.8499984741210940,325.1478881835937500,728.5894775390625000,6.0280270576477050,34.3346481323242200,16,3,50,109,64,2147238856,2147555972,2147575116,2147358623,3345,0,-11,15357
1340632514,6504,180.9199981689453000,6.0917000770568850,34.8456001281738300,326.7797851562500000,727.6204223632812000,6.0614829063415530,34.2568893432617200,16,3,50,108,64,2147237805,2147557654,2147578587,2147360886,2396,0,-12,12010
1340632575,6503,178.0599975585937500,6.1009001731872560,34.8462982177734400,327.7156066894531000,727.2479248046875000,6.0743389129638670,34.2161712646484400,16,3,49,106,64,2147237654,2147558417,2147578664,2147359766,1827,0,-12,11731
1340632636,6468,175.2799987792968800,6.1104998588562010,34.8470993041992200,328.1698913574219000,726.9420776367188000,6.0848898887634280,34.1937294006347660,16,3,49,110,64,2147238769,2147558472,2147580004,2147358349,1377,0,-12,46134
1340632697,6468,172.4700012207031200,6.1192998886108400,34.8465995788574200,328.4880065917969000,726.7009277343750000,6.0932159423828125,34.1776885986328100,16,3,49,110,64,2147240977,2147557320,2147579094,2147358523,805,0,-12,23374
1340632761,6468,169.5000000000000000,6.1247000694274900,34.8470001220703100,328.7268981933594000,726.5084228515625000,6.0998568534851070,34.1655807495117200,16,3,49,109,64,2147239395,2147557833,2147580684,2147357837,69,0,-12,13277
1340632822,6504,166.6300048828125000,6.1262001991271970,34.8457984924316400,328.8450927734375000,726.4431762695312000,6.1021060943603520,34.1601982116699200,16,3,50,111,64,2147237018,2147557919,2147580420,2147361375,2877,0,-12,36972
1340632885,6468,163.5800018310547000,6.1496000289916990,34.8427009582519500,329.1783142089844000,725.7896118164062000,6.1246528625488280,34.1356887817382800,16,3,50,107,64,2147240045,2147555930,2147580347,2147358788,2069,0,-12,46208
1340632946,6504,160.5299987792968800,6.1613001823425290,34.8426017761230500,329.7525024414062500,725.4699096679688000,6.1356787681579590,34.1089706420898440,16,3,50,107,64,2147238266,2147558486,2147577448,2147360173,1577,0,-12,59970
1340633009,6503,157.2899932861328000,6.1637001037597660,34.8419990539550800,329.9331970214844000,725.3837280273438000,6.1386508941650390,34.1009101867675800,16,3,49,109,63,2147237892,2147557440,2147581174,2147364150,1102,0,-12,13372
1340633071,6467,154.0899963378906200,6.1700000762939450,34.8406982421875000,330.2435913085937500,725.1937255859375000,6.1452050209045410,34.0863113403320300,16,3,50,107,64,2147241604,2147555414,2147581599,2147361942,412,0,-12,41639
1340633134,6503,150.7299957275390600,6.1793999671936035,34.8389015197753900,330.3297119140625000,724.9743041992188000,6.1527709960937500,34.0791511535644500,16,3,50,107,64,2147237302,2147556689,2147582344,2147360913,3031,0,-12,20691
1340633195,6504,147.4700012207031200,6.1775999069213870,34.8362998962402340,330.5223083496094000,724.9713134765625000,6.1528759002685550,34.0720901489257800,16,3,50,106,64,2147234376,2147561179,2147582930,2147359944,2504,0,-12,5232
1340633262,6504,143.9499969482422000,6.1637997627258300,34.8296012878418000,330.5906066894531000,725.3214721679688000,6.1407971382141110,34.0762901306152340,16,3,50,108,64,2147238381,2147558084,2147586349,2147361412,1977,0,-12,53421
1340633323,6503,140.8099975585937500,6.1648001670837400,34.8263015747070300,330.9547119140625000,725.3027954101562000,6.1414408683776855,34.0629692077636700,16,3,50,106,65,2147239830,2147556648,2147584502,2147362015,1503,0,-12,63039
1340633387,6504,137.5099945068359400,6.1810002326965330,34.8219985961914060,331.0647888183594000,724.8759155273438000,6.1561660766601560,34.0508613586425800,16,3,50,109,64,2147234353,2147558184,2147581498,2147362125,1106,0,-12,9984
1340633448,6468,134.4499969482422000,6.1953001022338870,34.8213996887207000,331.0075988769531000,724.4439697265625000,6.1710510253906250,34.0447082519531250,16,3,50,108,64,2147238541,2147559017,2147585869,2147361526,282,0,-12,20374
1340633511,6468,131.2599945068359400,6.2114000320434570,34.8186988830566400,330.7615051269531000,723.9288940429688000,6.1888079643249510,34.0439491271972660,16,3,50,110,64,2147236223,2147558856,2147584845,2147360548,3256,0,-12,29285
1340633572,6504,128.0899963378906200,6.2374000549316410,34.8126983642578100,331.0394897460937500,723.3088989257812000,6.2101750373840330,34.0222511291503900,16,3,50,108,64,2147234582,2147558650,2147588004,2147362107,2540,0,-12,57049
1340633635,6503,124.7600021362304700,6.2452001571655270,34.8092002868652340,331.2706909179687500,723.0023193359375000,6.2207369804382320,34.0082015991210940,16,3,50,110,63,2147235547,2147557928,2147587199,2147359665,2235,0,-12,39673
1340633696,6504,121.4899978637695300,6.2527999877929690,34.8097991943359400,331.5535888671875000,722.7866821289062000,6.2281651496887210,33.9940605163574200,16,3,50,110,64,2147237096,2147559241,2147594545,2147361196,1831,0,-11,48937
1340633759,6468,118.1999969482421900,6.2575998306274410,34.8073005676269500,331.7228088378906000,722.6046752929688000,6.2344322204589840,33.9844818115234400,16,3,50,110,64,2147236722,2147557828,2147597521,2147364150,1340,0,-12,18627
1340633820,6468,115.1100006103515600,6.2606000900268555,34.8049011230468750,331.9635925292969000,722.5247802734375000,6.2371878623962400,33.9745597839355500,16,3,50,105,64,2147239757,2147559391,2147605188,2147363180,957,0,-12,27167
1340633883,6468,112.1900024414062500,6.2667999267578125,34.8028984069824200,332.4856872558594000,722.3566284179688000,6.2429790496826170,33.9529914855957000,16,3,50,108,64,2147235697,2147559145,2147608758,2147367437,293,0,-12,60615
1340633944,6504,109.5999984741211000,6.2869000434875490,34.7999000549316400,332.9804992675781000,721.8120117187500000,6.2617378234863280,33.9250717163085940,16,3,50,107,64,2147237023,2147560045,2147611990,2147364324,3496,0,-12,65413
1340634008,6465,107.2099990844726600,6.3076000213623050,34.7943000793457000,333.1831054687500000,721.2362060546875000,6.2815608978271480,33.9074096679687500,16,3,50,107,64,2147237745,2147559771,2147603889,2147367290,2881,0,-12,3747
1340634069,6503,105.2200012207031200,6.3130002021789550,34.7929992675781250,332.7831115722656000,721.0402221679688000,6.2883071899414060,33.9175987243652340,16,3,51,107,64,2147239958,2147559592,2147603821,2147366714,2382,0,-12,2699
1340634159,6504,101.6200027465820300,6.3291997909545900,34.7873992919921900,331.3056945800781000,720.5421752929688000,6.3054499626159670,33.9605598449707000,16,3,52,110,64,2147237754,2147560662,2147599318,2147364086,1734,0,-12,29905
1340634220,6466,98.2900009155273400,6.3632998466491700,34.7816009521484400,330.8918151855469000,719.6577148437500000,6.3358898162841800,33.9586296081543000,16,3,54,113,64,2147236996,2147559620,2147600772,2147365804,1114,0,-12,58622
1340634283,6468,94.6500015258789000,6.3670997619628910,34.7801017761230500,327.8876953125000000,719.2935180664062000,6.3484168052673340,34.0591697692871100,16,3,54,112,64,2147238271,2147561119,2147603190,2147366088,329,0,-12,30460
1340634344,6504,90.9800033569336000,6.3951001167297360,34.7779998779296900,327.3250122070312500,718.5816040039062000,6.3729038238525390,34.0661888122558600,16,3,54,112,65,2147238349,2147560584,2147610143,2147366458,2758,0,-12,15778
1340634431,6469,86.0400009155273400,6.4344000816345215,34.7759017944335940,329.1094970703125000,717.4426269531250000,6.4120659828186035,33.9808311462402340,16,3,58,114,64,2147239245,2147561165,2147625490,2147371757,2341,0,-11,30024
1340634492,6466,83.2699966430664000,6.4626002311706540,34.7745018005371100,330.2041015625000000,716.6151733398438000,6.4404997825622560,33.9262390136718750,16,3,62,113,64,2147239908,2147562646,2147635648,2147374500,2096,0,-11,19583
1340634555,6503,80.4100036621093800,6.4890999794006350,34.7732009887695300,331.5238037109375000,715.9733276367188000,6.4625568389892580,33.8673286437988300,16,3,61,119,64,2147240653,2147565599,2147650180,2147377471,1921,0,-12,5019
1340634616,6503,77.6100006103515600,6.5026998519897460,34.7731018066406250,332.5054931640625000,715.5731811523438000,6.4762988090515140,33.8249702453613300,16,3,62,122,63,2147244969,2147568200,2147670002,2147382134,1682,0,-12,27405
1340634680,6503,74.6900024414062500,6.5089998245239260,34.7734985351562500,333.7493896484375000,715.3331909179688000,6.4845452308654785,33.7765388488769500,16,3,64,115,64,2147241846,2147573810,2147692831,2147388859,1397,0,-12,42289
1340634741,6503,71.9199981689453100,6.5123000144958500,34.7732009887695300,334.3796997070312500,715.1964111328125000,6.4892411231994630,33.7519683837890600,16,3,64,119,64,2147243277,2147576964,2147722029,2147402111,1136,0,-12,293
1340634804,6467,69.0000000000000000,6.5205001831054690,34.7723007202148440,334.8295898437500000,714.9929199218750000,6.4962310791015625,33.7324714660644500,16,3,64,120,64,2147246371,2147583391,2147747491,2147407309,757,0,-10,16391
1340634865,6504,66.1399993896484400,6.5612998008728030,34.7685012817382800,335.1203002929687500,714.0767211914062000,6.5276889801025390,33.7051887512207000,16,3,65,118,65,2147246545,2147588772,2147784447,2147417572,3538,0,-12,52650
1340634928,6468,63.2299995422363300,6.5651998519897460,34.7686004638671900,335.1570129394531000,713.7224731445312000,6.5398478507995605,33.6974296569824200,16,3,68,120,64,2147249279,2147598957,2147821795,2147431588,3025,0,-10,31332
1340634989,6502,60.7000007629394500,6.5666999816894530,34.7680015563964840,335.0744018554687500,713.6119995117188000,6.5436382293701170,33.6981697082519500,16,3,68,122,64,2147255812,2147606468,2147858514,2147448383,2553,0,-12,26941
1340635052,6504,58.5600013732910160,6.6047000885009770,34.7611999511718750,334.8575134277344000,712.7097167968750000,6.5746040344238280,33.6890296936035160,16,3,70,129,64,2147255130,2147605928,2147872694,2147458852,2124,0,-10,28919
1340635113,6503,57.0299987792968750,6.6603999137878420,34.7597007751464840,334.7522888183594000,711.8739013671875000,6.6032729148864750,33.6771202087402340,16,3,75,131,64,2147254733,2147608169,2147869280,2147460255,1409,0,-12,24922
1340635200,6469,54.8899993896484400,6.7184000015258790,34.7583999633789060,334.4635009765625000,708.0261230468750000,6.7351469993591310,33.6163902282714840,16,3,80,141,64,2147258674,2147611002,2147886408,2147476566,728,0,-12,16209
1340635261,6503,52.4799995422363300,6.9734001159667970,34.7494010925293000,334.9479064941406000,701.7238159179688000,6.9507050514221190,33.4834098815918000,16,3,95,158,64,2147262852,2147619446,2147924497,2147498285,3531,0,-11,5881
1340635352,6504,47.7900009155273440,7.4861998558044430,34.7392997741699200,336.2283020019531000,688.5903930664062000,7.3982071876525880,33.2016105651855500,23,3,147,217,64,2147282179,2147641329,2148037032,2147568022,1986,0,-12,25700
1340635413,6467,44.0000000000000000,7.8179998397827150,34.7378997802734400,337.2987060546875000,677.3682250976562000,7.7788109779357910,32.9650611877441400,28,3,189,234,64,2147302980,2147677096,2148174258,2147654898,1272,0,-11,40756
1340635476,6505,40.2700004577636700,8.2679996490478520,34.7293014526367200,337.3532104492187500,665.4739990234375000,8.1804561614990230,32.7550392150878900,52,3,261,274,65,2147339779,2147723752,2148359328,2147775295,3143,0,-12,8508
1340635537,6472,37.5800018310546900,8.8423004150390620,34.7262001037597660,336.7626953125000000,647.9000244140625000,8.7707118988037110,32.4736099243164060,61,3,940,465,66,2147428881,2147862220,2148834093,2148003254,2127,0,-10,54840
1340635600,6505,35.4000015258789060,9.1349000930786130,34.7288017272949200,340.0338134765625000,638.2910156250000000,9.0918960571289060,32.2010192871093750,97,3,1477,618,65,2147583688,2148115885,2149600127,2148334207,1146,0,-11,17063
1340635661,6505,32.9599990844726560,9.4715003967285160,34.7248001098632800,342.9534912109375000,628.0283203125000000,9.4337406158447270,31.9329395294189450,101,3,1972,905,66,2147848534,2148506802,2150639012,2148815167,1111,0,-12,3934
1340635752,6471,28.9500007629394530,9.9399995803833000,34.7239990234375000,347.4869995117187500,612.2061767578125000,9.9584522247314450,31.5261001586914060,154,3,1813,673,66,2149279313,2150735848,2155380571,2150714646,953,0,-12,48859
1340635813,6470,25.7999992370605470,10.7642002105712890,34.7136001586914060,347.9536132812500000,590.7398071289062000,10.6660299301147460,31.1692409515380860,387,3,992,488,68,2151321485,2153742509,2160661289,2152877252,237,0,-12,60148
1340635876,6470,23.0300006866455080,11.4395999908447270,34.6967010498046900,346.1846008300781000,569.3294067382812000,11.3670701980590820,30.8934803009033200,71,3,558,370,68,2153452027,2156630089,2165337969,2154947748,383,0,-11,56895
1340635937,6503,20.8199996948242200,11.6268997192382810,34.7294006347656250,345.5924072265625000,562.9428710937500000,11.5753097534179690,30.8148097991943360,62,3,388,387,66,2155861855,2159603341,2169456004,2156892342,1075,0,-11,54772
1340636028,6470,17.0699996948242200,11.9849996566772460,34.7291984558105500,343.0881042480469000,551.4202880859375000,11.9500703811645500,30.7208995819091800,66,3,325,448,68,2164054404,2169445896,2182750298,2163297878,189,-1,-13,26849
1340636089,6469,13.9600000381469730,12.2551002502441400,34.7285995483398440,341.1346130371094000,542.3616943359375000,12.2438297271728520,30.6483097076416000,71,3,285,448,66,2173040146,2179090120,2193168690,2168768310,3373,-1,-11,21090
1340636152,6470,11.1300001144409180,12.3304996490478520,34.7299995422363300,340.8192138671875000,539.7197875976562000,12.3293600082397460,30.6190109252929700,75,3,241,412,66,2223086674,2241401283,2279679817,2212815185,3181,0,-12,14643
1340636213,6471,8.2700004577636720,12.3656997680664060,34.7312011718750000,340.7134094238281000,538.0811157226562000,12.3823900222778320,30.5978202819824220,81,3,168,394,67,2290134500,2316604214,2365181932,2263507602,3340,-3,-6,39402
1340636268,6470,5.5799999237060550,12.4944000244140620,34.7288017272949200,339.5896911621094000,534.0161132812500000,12.5138196945190430,30.5740699768066400,77,3,130,406,65,2354631803,2383412251,2428959350,2311393805,3391,1,-21,11593
1340636315,6469,3.5699999332427980,12.6330995559692380,34.7369003295898440,338.0537109375000000,527.9758300781250000,12.7088603973388670,30.5347194671630860,81,3,122,412,64,2460409576,2493853979,2534120241,2405604346,587,8,-8,30962
1340636363,6470,2.4800000190734863,0.0000000000000000,0.0000000000000000,336.0822143554687500,522.6459960937500000,12.8807001113891600,30.5209999084472660,198,3,117,366,66,2493163907,2518852168,2565814266,2443333667,191,0,-8,42642
1340636407,6466,8.0000000000000000,0.0000000000000000,0.0000000000000000,334.7380981445312500,518.6729736328125000,13.0086498260498050,30.5072307586669920,248,3,104,387,63,2580115936,2622812443,2658913608,2554174290,496,-1,-18,55550
